Tracking 29892 objects as of 21-Nov-2024
HD Live streaming from Space Station
objects crossing your sky now

GLOBALSTAR M062

Track GLOBALSTAR M062 now!
10-day predictions
GLOBALSTAR M062 is classified as:


NORAD ID: 26082
Int'l Code: 2000-008B
Perigee: 1,493.6 km
Apogee: 1,504.7 km
Inclination: 52.0 °
Period: 115.8 minutes
Semi major axis: 7870 km
RCS: 2.6606 m2 (large)
Launch date: February 8, 2000
Source: Globalstar (GLOB)
Launch site: AIR FORCE EASTERN TEST RANGE (AFETR)
Your satellite tracking list
Your tracking list is empty




NASA's NSSDC Master Catalog

Two Line Element Set (TLE):
1 26082U 00008B   24325.55375056 -.00000170  00000-0 -51494-3 0  9994
2 26082  51.9867 349.3041 0007074  27.8970 138.4922 12.43449476470667
Source of the keplerian elements: AFSPC